SCP
0 0 0 -0 -0 -0 -0 -0 -0 -0 -0 -0 -0 -0 -0 -0 -0 -0 -0 -0 -0 -0 -0 -0 -0 0 0 0 0 0 0 0 0 -0 -0 -0 0 0 0 0 0 0 0
-0 0 -0 -0 -0 -0 -0 -0 -0 -0 -0 -0 -0 -0 -0 -0 -0 -0 -0 -0 -0 -0 -0 -0 -0 -0 -0 0 0 0 0 0 0 0 0 0 0 0 0 0 0 0 0
-0 0 0 -0 -0 -0 -0 -0 -0 -0 -0 -0 -0 -0 -0 -0 -0 -0 -0 -0 -0 -0 -0 -0 -0 -0 -0 0 0 0 0 0 0 0 0 0 0 0 0 0 0 0 0
0 0 0 -0 -0 -0 -0 -0 -0 -0 -0 -0 -0 -0 -0 -0 -0 -0 -0 -0 -0 -0 0 -0 -0 -0 -0 -0 -0 -0 0 0 0 0 0 0 0 0 0 0 0 0 0
0 0 0 -0 -0 -0 -0 -0 -0 -0 -0 -0 -0 -0 -0 -0 -0 -0 -0 -0 0 -0 -0 0 0 0 0 0 0 -0 -0 -0 -0 0 0 0 0 0 0 0 0 0 0
0 0 0 -0 -0 -0 -0 -0 -0 -0 -0 -0 -0 -0 -0 -0 -0 -0 -0 0 0 0 0 0 0 0 0 0 0 0 0 0 0 0 0 0 0 0 0 0 0 0 0
0 0 0 0 -0 -0 -0 -0 -0 -0 -0 -0 -0 -0 -0 0 0 0 0 0 0 0 0 0 0 0 0 0 0 0 0 0 0 0 0 0 0 0 0 0 0 0 0
0 0 0 0 0 0 -0 -0 -0 0 -0 -0 -0 -0 0 0 0 0 0 0 0 0 0 0 -0 -0 0 0 0 0 0 0 0 0 0 0 -0 -0 0 0 0 0 0
0 0 0 0 0 0 0 0 0 0 0 0 0 0 0 0 0 0 0 0 0 0 0 0 0 0 0 0 0 0 0 0 0 0 0 0 0 0 0 0 0 0 0
0 0 0 0 0 0 0 0 0 0 0 0 0 0 0 0 0 0 0 0 0 0 0 0 0 0 0 0 0 0 0 0 0 0 0 0 0 0 0 0 0 0 0
0 0 0 0 0 0 0 0 0 0 0 0 0 0 0 0 0 0 0 0 0 0 0 0 0 0 0 0 0 0 0 0 0 0 0 0 0 0 0 0 0 0 0
0 0 0 0 0 0 0 0 0 0 0 0 0 0 0 0 0 0 0 0 0 0 0 0 0 0 0 0 0 0 0 0 0 0 0 0 0 0 0 0 0 0 0
0 0 0 0 0 0 0 0 0 0 0 0 0 0 0 0 0 0 0 0 0 0 0 0 0 0 0 0 0 0 0 0 0 0 0 0 0 0 0 0 0 0 0
0 0 0 0 0 0 0 0 0 0 0 0 0 0 0 0 0 0 0 0 0 0 0 0 0 0 0 0 0 0 0 0 0 0 0 0 0 0 0 0 0 0 0
0 0 0 0 0 0 0 0 0 0 0 0 0 0 0 0 0 0 0 0 0 0 0 0 0 0 0 0 0 0 0 0 0 0 0 0 0 0 0 0 0 0 0
0 0 0 0 0 0 0 0 0 0 0 0 0 0 0 0 0 0 0 0 0 0 0 0 0 0 0 0 0 0 0 0 0 0 0 0 0 0 0 0 0 0 0
0 0 0 0 0 0 0 0 0 0 0 0 0 0 0 0 0 0 0 0 0 0 0 0 0 0 0 0 0 0 0 0 0 0 0 0 0 0 0 0 0 0 0
0 0 0 0 0 0 0 0 0 0 0 0 0 0 0 0 0 0 0 0 0 0 0 0 0 0 0 0 0 0 0 0 0 0 0 0 0 0 0 0 0 0 0
0 0 0 0 0 0 0 0 0 0 0 0 0 0 0 0 0 0 0 0 0 0 0 0 0 0 0 0 0 0 0 0 0 0 0 0 0 0 0 0 0 0 0
0 0 0 0 0 0 0 0 0 0 0 0 0 0 0 0 0 0 0 0 0 0 0 0 0 0 0 0 0 0 0 0 0 0 0 0 0 0 0 0 0 0 0
0 0 0 0 0 0 0 0 0 0 0 0 0 0 0 0 0 0 0 0 0 0 0 0 0 0 0 0 0 0 0 0 0 0 0 0 0 0 0 0 0 0 0
0 0 0 0 0 0 0 0 0 0 0 0 0 0 0 0 0 0 0 0 0 0 0 0 0 0 0 0 0 -0 0 0 0 0 0 0 0 0 0 0 0 0 0
0 0 0 0 0 0 0 0 0 0 0 0 0 0 0 0 0 0 0 0 0 0 0 0 0 0 0 0 0 0 0 0 0 0 0 0 0 0 0 0 0 0 0
0 0 0 0 0 0 0 0 0 0 0 0 0 0 0 0 0 0 0 0 0 0 0 0 0 0 0 0 0 0 0 0 0 -0 0 0 0 0 0 0 0 0 0
0 0 0 0 0 0 0 0 0 0 0 0 0 0 0 0 0 0 0 0 0 0 0 0 0 0 0 0 0 0 0 0 0 0 0 0 0 0 0 0 0 0 0
0 0 0 0 0 0 0 0 0 0 0 0 0 0 0 0 0 0 0 0 0 0 0 0 0 0 0 0 0 0 0 0 0 0 0 0 0 0 0 0 -0 -0 -0
Wind_Speed_500mb
34 28 25 21 20 22 22 19 18 18 19 18 16 13 9 7 3 1 1 2 7 5 4 4 6 6 6 6 7 7 8 9 9 9 6 5 3 3 5 7 7 8 9
31 30 26 27 22 24 24 23 23 21 20 18 17 17 10 7 6 4 4 4 5 6 5 9 8 10 11 10 9 9 9 9 8 7 3 2 1 7 3 5 11 9 5
34 32 31 30 28 24 23 26 24 22 21 20 17 14 11 11 10 8 9 9 10 11 13 16 15 13 13 12 11 9 9 8 7 6 6 4 4 3 5 9 13 12 9
34 31 29 30 29 25 23 20 22 25 22 19 14 12 12 13 13 13 13 14 15 16 17 19 19 17 18 18 18 14 13 11 9 6 7 8 8 3 7 7 6 9 10
39 35 33 31 29 28 27 23 21 21 23 19 18 16 16 15 14 13 13 13 13 15 16 16 17 17 17 20 21 19 18 17 13 9 7 10 10 10 9 13 17 18 15
44 40 37 33 30 29 27 26 25 26 21 18 16 15 13 12 11 11 12 12 12 14 15 16 15 14 13 15 17 18 18 17 17 15 14 13 13 15 16 17 17 16 16
47 43 38 33 32 30 28 26 25 21 19 16 14 13 13 13 12 12 10 8 6 5 3 4 6 7 8 8 9 11 13 15 16 18 21 20 18 14 17 19 20 18 16
44 43 40 37 35 31 28 26 25 23 21 18 17 15 14 12 11 9 7 6 4 1 1 3 6 7 9 10 10 10 9 7 10 17 21 20 20 20 11 14 17 18 19
47 46 43 41 39 36 34 31 29 26 25 23 21 18 16 13 12 10 8 5 2 2 5 8 9 10 10 11 12 11 10 9 7 10 16 19 23 24 27 30 28 23 22
48 50 48 46 44 42 38 34 31 30 28 26 24 22 19 18 15 12 8 5 2 2 5 9 12 14 15 14 14 13 12 10 8 9 12 15 20 25 29 33 34 33 33
54 56 55 53 51 46 42 39 37 34 31 29 27 25 23 20 18 16 13 10 6 4 8 11 15 18 20 21 20 19 18 15 12 10 12 13 15 17 20 25 28 30 32
57 59 61 59 56 51 47 45 42 40 37 34 30 28 25 24 23 20 16 12 9 9 11 15 17 19 23 24 24 22 21 19 17 16 16 16 18 20 19 20 22 25 27
55 59 60 62 60 57 53 50 49 45 43 40 36 33 30 28 24 22 18 15 14 14 15 16 19 21 22 24 26 26 25 22 19 18 21 23 23 23 23 22 22 23 24
64 62 61 62 64 62 58 56 51 49 47 44 40 38 35 31 28 25 23 20 19 18 18 19 20 21 24 28 28 28 27 25 23 22 23 24 25 27 28 28 27 25 25
69 69 66 66 67 66 65 61 58 55 51 47 46 42 39 35 32 30 27 25 24 24 24 24 22 23 25 26 28 27 26 27 26 25 24 27 28 28 30 29 31 31 30
72 74 72 72 71 70 71 68 64 60 56 54 51 47 42 40 38 35 32 31 29 27 26 26 26 27 28 28 28 27 26 24 24 25 26 26 28 29 30 28 26 23 20
79 77 78 75 75 75 74 71 69 65 63 59 56 52 49 46 44 41 37 35 31 29 29 29 31 31 29 29 29 27 25 24 23 20 18 18 18 20 24 24 18 13 16
81 85 80 80 80 79 77 75 74 71 68 63 60 57 54 51 49 44 41 37 34 32 31 31 31 30 30 31 29 29 28 26 23 19 17 10 8 10 13 11 13 22 21
79 80 82 84 85 83 80 75 76 75 74 68 65 64 59 57 54 50 46 43 39 36 35 34 34 33 34 34 34 33 33 29 22 12 2 5 17 13 14 17 19 24 30
82 84 84 83 87 85 81 75 76 76 77 74 73 69 65 63 58 55 53 49 43 40 37 36 35 35 37 40 41 40 37 32 20 5 11 28 15 19 23 16 16 22 33
88 92 93 91 91 89 90 86 85 87 86 85 80 74 72 67 65 61 58 54 47 42 40 38 35 34 35 38 43 42 36 19 12 3 38 13 30 20 17 19 30 37 43
87 91 99 100 97 93 93 92 91 87 88 86 81 79 77 74 70 67 63 57 51 48 45 40 35 35 35 34 35 41 21 28 7 44 18 35 15 39 30 38 47 52 55
83 83 95 102 100 96 94 94 94 89 86 87 90 89 86 79 75 71 66 62 57 53 48 41 37 35 35 34 31 22 13 12 53 19 41 27 49 40 48 51 53 51 53
77 75 86 99 101 96 96 96 99 99 95 95 96 95 90 83 79 75 71 66 60 56 52 46 40 37 36 35 32 29 28 30 27 33 42 52 49 57 59 58 58 63 60
71 73 79 94 101 97 96 96 95 98 93 90 93 92 88 85 82 78 75 69 67 62 57 52 44 40 38 36 33 31 33 34 35 34 61 68 68 65 68 71 75 70 71
70 72 80 95 103 98 94 93 93 94 95 94 93 91 89 88 85 83 79 75 70 66 61 53 47 44 39 37 36 37 37 35 37 35 46 66 71 76 77 78 75 77 74
Wind_Direction_500mb
193 203 192 174 174 178 181 178 171 163 155 161 171 177 187 180 187 227 29 37 64 40 27 299 303 320 338 331 340 344 338 349 8 15 26 52 73 25 14 4 2 15 25
193 190 195 188 171 170 172 171 173 175 174 190 183 188 190 196 196 190 212 252 268 254 252 281 299 310 318 319 321 319 343 347 346 356 5 117 14 20 333 319 337 331 356
187 191 188 193 198 194 191 187 184 184 194 190 180 183 190 215 226 223 229 238 252 254 270 282 291 295 296 298 301 308 304 301 324 324 316 301 263 105 15 334 343 333 322
193 192 191 195 199 203 210 206 199 196 198 205 209 216 226 227 238 248 248 248 248 254 260 267 276 279 276 278 278 276 275 278 278 281 293 294 295 285 244 259 297 303 301
191 194 196 197 197 202 207 207 211 211 216 216 217 224 230 234 233 229 234 245 255 261 267 271 272 274 277 280 278 274 264 261 261 263 248 256 253 268 287 270 273 283 291
190 195 196 200 205 210 214 212 212 219 219 220 221 217 218 222 229 234 235 236 242 255 267 276 280 277 269 265 270 275 271 263 255 247 237 232 247 252 267 278 286 296 282
194 198 201 206 213 216 213 211 216 216 218 215 219 218 221 227 235 243 247 245 231 231 263 294 322 331 336 324 306 287 277 271 265 252 242 232 229 244 270 285 278 278 282
204 204 207 210 213 212 208 207 209 207 213 215 218 223 234 232 226 216 202 194 191 195 357 352 354 348 351 347 342 338 335 307 268 249 245 242 235 231 222 258 277 264 268
207 213 214 214 212 211 209 209 208 210 208 208 212 214 216 214 209 202 199 202 209 351 350 350 345 341 342 340 340 337 337 341 316 280 260 247 246 244 253 264 268 258 254
214 215 217 217 215 213 212 211 212 210 211 211 208 207 206 207 209 212 209 207 210 320 341 343 343 342 339 333 331 327 325 320 314 293 279 263 252 254 261 270 273 274 274
217 219 220 220 219 217 216 216 216 216 215 212 209 209 209 209 209 210 209 212 230 287 324 332 333 333 333 333 328 318 310 307 300 283 270 268 263 259 256 261 271 276 273
222 222 223 223 223 222 220 220 219 217 215 214 213 214 213 213 211 211 213 225 248 277 299 311 318 323 325 323 318 310 303 295 290 284 278 269 264 266 264 260 263 271 275
233 229 228 226 225 225 223 221 220 219 217 216 216 217 218 222 226 231 234 240 259 277 285 291 302 310 318 320 319 312 305 299 290 280 275 273 274 269 270 270 271 268 272
238 237 234 231 228 226 223 225 223 221 219 218 218 218 221 225 228 231 236 249 262 269 277 291 299 308 315 318 317 312 306 299 293 289 288 287 284 283 283 280 274 269 265
242 241 237 234 232 229 227 226 225 223 223 221 222 224 226 230 234 236 238 247 254 262 274 286 296 303 308 313 315 311 305 301 301 296 289 286 287 284 282 285 284 284 286
244 243 240 238 236 231 232 229 229 227 224 225 227 228 230 232 234 236 242 249 255 263 271 278 286 291 297 307 313 315 312 305 301 298 297 293 286 284 284 281 284 292 311
252 245 242 240 238 235 234 232 229 228 227 227 229 230 231 232 234 235 239 244 248 258 266 274 281 288 298 308 320 323 319 313 306 300 299 297 298 292 283 282 289 296 313
252 248 245 240 239 236 234 232 231 230 230 229 230 232 232 233 234 237 242 245 250 257 265 274 281 290 297 303 316 326 322 317 315 316 307 302 315 313 308 314 309 313 320
255 254 247 242 239 236 233 231 231 231 232 231 231 233 232 233 234 236 241 245 250 256 263 272 280 288 295 303 313 322 326 322 318 319 98 342 329 319 311 309 308 312 318
252 253 249 244 240 234 233 230 230 230 232 232 231 232 233 233 234 237 238 241 245 252 260 267 275 286 294 303 309 318 325 322 317 298 336 327 334 329 319 306 310 314 314
253 250 244 240 238 230 227 225 226 229 229 230 231 232 233 233 235 237 239 243 245 251 258 265 274 284 295 302 307 310 321 314 301 273 334 344 332 346 323 322 316 313 312
257 254 244 238 238 234 229 228 229 231 232 234 234 235 234 234 235 237 238 241 243 246 252 259 269 280 289 301 312 323 327 320 245 316 302 325 330 335 322 318 319 318 315
255 246 244 240 237 233 229 226 228 230 232 233 232 233 233 234 235 237 238 239 241 244 248 254 264 276 288 298 308 318 322 305 315 308 309 317 325 326 320 318 319 321 318
255 251 242 238 235 231 229 228 228 230 229 231 233 234 233 233 234 236 238 239 241 244 248 253 257 266 277 286 295 301 301 298 310 309 305 309 316 318 320 322 324 323 325
251 248 243 235 232 230 229 231 230 232 235 237 237 237 236 237 237 237 238 239 241 243 246 249 253 261 269 278 285 290 293 295 292 287 299 310 313 319 321 324 324 324 324
242 237 237 232 228 228 229 232 232 233 235 235 236 237 236 238 238 238 237 238 239 241 244 247 251 257 264 272 279 283 285 288 291 288 287 300 307 315 318 319 319 319 322
Wind_Speed_850mb
34 28 25 21 20 22 22 19 18 18 19 18 16 13 9 7 3 1 1 2 7 5 4 4 6 6 6 6 7 7 8 9 9 9 6 5 3 3 5 7 7 8 9
31 30 26 27 22 24 24 23 23 21 20 18 17 17 10 7 6 4 4 4 5 6 5 9 8 10 11 10 9 9 9 9 8 7 3 2 1 7 3 5 11 9 5
34 32 31 30 28 24 23 26 24 22 21 20 17 14 11 11 10 8 9 9 10 11 13 16 15 13 13 12 11 9 9 8 7 6 6 4 4 3 5 9 13 12 9
34 31 29 30 29 25 23 20 22 25 22 19 14 12 12 13 13 13 13 14 15 16 17 19 19 17 18 18 18 14 13 11 9 6 7 8 8 3 7 7 6 9 10
39 35 33 31 29 28 27 23 21 21 23 19 18 16 16 15 14 13 13 13 13 15 16 16 17 17 17 20 21 19 18 17 13 9 7 10 10 10 9 13 17 18 15
44 40 37 33 30 29 27 26 25 26 21 18 16 15 13 12 11 11 12 12 12 14 15 16 15 14 13 15 17 18 18 17 17 15 14 13 13 15 16 17 17 16 16
47 43 38 33 32 30 28 26 25 21 19 16 14 13 13 13 12 12 10 8 6 5 3 4 6 7 8 8 9 11 13 15 16 18 21 20 18 14 17 19 20 18 16
44 43 40 37 35 31 28 26 25 23 21 18 17 15 14 12 11 9 7 6 4 1 1 3 6 7 9 10 10 10 9 7 10 17 21 20 20 20 11 14 17 18 19
47 46 43 41 39 36 34 31 29 26 25 23 21 18 16 13 12 10 8 5 2 2 5 8 9 10 10 11 12 11 10 9 7 10 16 19 23 24 27 30 28 23 22
48 50 48 46 44 42 38 34 31 30 28 26 24 22 19 18 15 12 8 5 2 2 5 9 12 14 15 14 14 13 12 10 8 9 12 15 20 25 29 33 34 33 33
54 56 55 53 51 46 42 39 37 34 31 29 27 25 23 20 18 16 13 10 6 4 8 11 15 18 20 21 20 19 18 15 12 10 12 13 15 17 20 25 28 30 32
57 59 61 59 56 51 47 45 42 40 37 34 30 28 25 24 23 20 16 12 9 9 11 15 17 19 23 24 24 22 21 19 17 16 16 16 18 20 19 20 22 25 27
55 59 60 62 60 57 53 50 49 45 43 40 36 33 30 28 24 22 18 15 14 14 15 16 19 21 22 24 26 26 25 22 19 18 21 23 23 23 23 22 22 23 24
64 62 61 62 64 62 58 56 51 49 47 44 40 38 35 31 28 25 23 20 19 18 18 19 20 21 24 28 28 28 27 25 23 22 23 24 25 27 28 28 27 25 25
69 69 66 66 67 66 65 61 58 55 51 47 46 42 39 35 32 30 27 25 24 24 24 24 22 23 25 26 28 27 26 27 26 25 24 27 28 28 30 29 31 31 30
72 74 72 72 71 70 71 68 64 60 56 54 51 47 42 40 38 35 32 31 29 27 26 26 26 27 28 28 28 27 26 24 24 25 26 26 28 29 30 28 26 23 20
79 77 78 75 75 75 74 71 69 65 63 59 56 52 49 46 44 41 37 35 31 29 29 29 31 31 29 29 29 27 25 24 23 20 18 18 18 20 24 24 18 13 16
81 85 80 80 80 79 77 75 74 71 68 63 60 57 54 51 49 44 41 37 34 32 31 31 31 30 30 31 29 29 28 26 23 19 17 10 8 10 13 11 13 22 21
79 80 82 84 85 83 80 75 76 75 74 68 65 64 59 57 54 50 46 43 39 36 35 34 34 33 34 34 34 33 33 29 22 12 2 5 17 13 14 17 19 24 30
82 84 84 83 87 85 81 75 76 76 77 74 73 69 65 63 58 55 53 49 43 40 37 36 35 35 37 40 41 40 37 32 20 5 11 28 15 19 23 16 16 22 33
88 92 93 91 91 89 90 86 85 87 86 85 80 74 72 67 65 61 58 54 47 42 40 38 35 34 35 38 43 42 36 19 12 3 38 13 30 20 17 19 30 37 43
87 91 99 100 97 93 93 92 91 87 88 86 81 79 77 74 70 67 63 57 51 48 45 40 35 35 35 34 35 41 21 28 7 44 18 35 15 39 30 38 47 52 55
83 83 95 102 100 96 94 94 94 89 86 87 90 89 86 79 75 71 66 62 57 53 48 41 37 35 35 34 31 22 13 12 53 19 41 27 49 40 48 51 53 51 53
77 75 86 99 101 96 96 96 99 99 95 95 96 95 90 83 79 75 71 66 60 56 52 46 40 37 36 35 32 29 28 30 27 33 42 52 49 57 59 58 58 63 60
71 73 79 94 101 97 96 96 95 98 93 90 93 92 88 85 82 78 75 69 67 62 57 52 44 40 38 36 33 31 33 34 35 34 61 68 68 65 68 71 75 70 71
70 72 80 95 103 98 94 93 93 94 95 94 93 91 89 88 85 83 79 75 70 66 61 53 47 44 39 37 36 37 37 35 37 35 46 66 71 76 77 78 75 77 74
Wind_Direction_850mb
193 203 192 174 174 178 181 178 171 163 155 161 171 177 187 180 187 227 29 37 64 40 27 299 303 320 338 331 340 344 338 349 8 15 26 52 73 25 14 4 2 15 25
193 190 195 188 171 170 172 171 173 175 174 190 183 188 190 196 196 190 212 252 268 254 252 281 299 310 318 319 321 319 343 347 346 356 5 117 14 20 333 319 337 331 356
187 191 188 193 198 194 191 187 184 184 194 190 180 183 190 215 226 223 229 238 252 254 270 282 291 295 296 298 301 308 304 301 324 324 316 301 263 105 15 334 343 333 322
193 192 191 195 199 203 210 206 199 196 198 205 209 216 226 227 238 248 248 248 248 254 260 267 276 279 276 278 278 276 275 278 278 281 293 294 295 285 244 259 297 303 301
191 194 196 197 197 202 207 207 211 211 216 216 217 224 230 234 233 229 234 245 255 261 267 271 272 274 277 280 278 274 264 261 261 263 248 256 253 268 287 270 273 283 291
190 195 196 200 205 210 214 212 212 219 219 220 221 217 218 222 229 234 235 236 242 255 267 276 280 277 269 265 270 275 271 263 255 247 237 232 247 252 267 278 286 296 282
194 198 201 206 213 216 213 211 216 216 218 215 219 218 221 227 235 243 247 245 231 231 263 294 322 331 336 324 306 287 277 271 265 252 242 232 229 244 270 285 278 278 282
204 204 207 210 213 212 208 207 209 207 213 215 218 223 234 232 226 216 202 194 191 195 357 352 354 348 351 347 342 338 335 307 268 249 245 242 235 231 222 258 277 264 268
207 213 214 214 212 211 209 209 208 210 208 208 212 214 216 214 209 202 199 202 209 351 350 350 345 341 342 340 340 337 337 341 316 280 260 247 246 244 253 264 268 258 254
214 215 217 217 215 213 212 211 212 210 211 211 208 207 206 207 209 212 209 207 210 320 341 343 343 342 339 333 331 327 325 320 314 293 279 263 252 254 261 270 273 274 274
217 219 220 220 219 217 216 216 216 216 215 212 209 209 209 209 209 210 209 212 230 287 324 332 333 333 333 333 328 318 310 307 300 283 270 268 263 259 256 261 271 276 273
222 222 223 223 223 222 220 220 219 217 215 214 213 214 213 213 211 211 213 225 248 277 299 311 318 323 325 323 318 310 303 295 290 284 278 269 264 266 264 260 263 271 275
233 229 228 226 225 225 223 221 220 219 217 216 216 217 218 222 226 231 234 240 259 277 285 291 302 310 318 320 319 312 305 299 290 280 275 273 274 269 270 270 271 268 272
238 237 234 231 228 226 223 225 223 221 219 218 218 218 221 225 228 231 236 249 262 269 277 291 299 308 315 318 317 312 306 299 293 289 288 287 284 283 283 280 274 269 265
242 241 237 234 232 229 227 226 225 223 223 221 222 224 226 230 234 236 238 247 254 262 274 286 296 303 308 313 315 311 305 301 301 296 289 286 287 284 282 285 284 284 286
244 243 240 238 236 231 232 229 229 227 224 225 227 228 230 232 234 236 242 249 255 263 271 278 286 291 297 307 313 315 312 305 301 298 297 293 286 284 284 281 284 292 311
252 245 242 240 238 235 234 232 229 228 227 227 229 230 231 232 234 235 239 244 248 258 266 274 281 288 298 308 320 323 319 313 306 300 299 297 298 292 283 282 289 296 313
252 248 245 240 239 236 234 232 231 230 230 229 230 232 232 233 234 237 242 245 250 257 265 274 281 290 297 303 316 326 322 317 315 316 307 302 315 313 308 314 309 313 320
255 254 247 242 239 236 233 231 231 231 232 231 231 233 232 233 234 236 241 245 250 256 263 272 280 288 295 303 313 322 326 322 318 319 98 342 329 319 311 309 308 312 318
252 253 249 244 240 234 233 230 230 230 232 232 231 232 233 233 234 237 238 241 245 252 260 267 275 286 294 303 309 318 325 322 317 298 336 327 334 329 319 306 310 314 314
253 250 244 240 238 230 227 225 226 229 229 230 231 232 233 233 235 237 239 243 245 251 258 265 274 284 295 302 307 310 321 314 301 273 334 344 332 346 323 322 316 313 312
257 254 244 238 238 234 229 228 229 231 232 234 234 235 234 234 235 237 238 241 243 246 252 259 269 280 289 301 312 323 327 320 245 316 302 325 330 335 322 318 319 318 315
255 246 244 240 237 233 229 226 228 230 232 233 232 233 233 234 235 237 238 239 241 244 248 254 264 276 288 298 308 318 322 305 315 308 309 317 325 326 320 318 319 321 318
255 251 242 238 235 231 229 228 228 230 229 231 233 234 233 233 234 236 238 239 241 244 248 253 257 266 277 286 295 301 301 298 310 309 305 309 316 318 320 322 324 323 325
251 248 243 235 232 230 229 231 230 232 235 237 237 237 236 237 237 237 238 239 241 243 246 249 253 261 269 278 285 290 293 295 292 287 299 310 313 319 321 324 324 324 324
242 237 237 232 228 228 229 232 232 233 235 235 236 237 236 238 238 238 237 238 239 241 244 247 251 257 264 272 279 283 285 288 291 288 287 300 307 315 318 319 319 319 322